Weather History for KAGC - June, 2013

Change the Weather History Date:

Tuesday, June 4, 2013

  Actual Average Record
Temperature  
Mean Temperature 60 °F -  
Max Temperature 73 °F 71 °F 87 °F (2002)
Min Temperature 48 °F 51 °F 41 °F (1988)
Degree Days  
Heating Degree Days 5    
Growing Degree Days 10 (Base 50)    
Moisture  
Dew Point 42 °F    
Average Humidity 52    
Maximum Humidity 74    
Minimum Humidity 35    
Precipitation  
Precipitation 0.00 in - - ()
Sea Level Pressure  
Sea Level Pressure 30.13 in    
Wind  
Wind Speed 4 mph (NNW)    
Max Wind Speed 9 mph    
Max Gust Speed -    
Visibility 10 miles    
Events      
Averages and records for this station are not official NWS values.
T = Trace of Precipitation, MM = Missing Value Source: NWS Daily Summary

Daily Weather History Graph

Daily Weather History Graph

Search for Another Location

Airport or City:

Trip Planner

Search our weather history database for the weather conditions in past years. The results will help you decide how hot, cold, wet, or windy it might be!

Date:

Astronomy

Jun. 04, 2013 Rise Set
Actual Time 5:50 AM EDT 8:45 PM EDT
Civil Twilight 5:18 AM EDT 9:18 PM EDT
Nautical Twilight 4:36 AM EDT 9:59 PM EDT
Astronomical Twilight 3:49 AM EDT 10:47 PM EDT
Moon 3:20 AM EDT (6/4) 5:13 PM EDT (6/4)
Length of Visible Light 16h 00m
Length of Day
14h 55m
Waning Crescent, 14% of the Moon is Illuminated
Jun 4
Waning Crescent
Jun 8
New
Jun 16
First Quarter
Jun 23
Full
Jun 30
Last Quarter

Hourly Weather History & Observations

Time (EDT) Temp. Dew Point Humidity Pressure Visibility Wind Dir Wind Speed Gust Speed Precip Events Conditions
12:53 AM 52.0 °F 39.0 °F 61% 30.08 in 10.0 mi NNW 8.1 mph - N/A   Clear
1:53 AM 51.1 °F 39.9 °F 66% 30.09 in 10.0 mi North 9.2 mph - N/A   Clear
2:53 AM 48.9 °F 39.9 °F 71% 30.09 in 10.0 mi North 5.8 mph - N/A   Clear
3:53 AM 48.9 °F 39.0 °F 69% 30.09 in 10.0 mi North 3.5 mph - N/A   Clear
4:53 AM 48.0 °F 39.0 °F 71% 30.11 in 10.0 mi Calm Calm - N/A   Clear
5:53 AM 48.9 °F 39.0 °F 69% 30.13 in 10.0 mi Calm Calm - N/A   Clear
6:53 AM 48.9 °F 41.0 °F 74% 30.14 in 10.0 mi Calm Calm - N/A   Clear
7:53 AM 52.0 °F 39.9 °F 63% 30.15 in 10.0 mi Calm Calm - N/A   Clear
8:53 AM 55.9 °F 42.1 °F 60% 30.17 in 10.0 mi Calm Calm - N/A   Clear
9:53 AM 60.1 °F 41.0 °F 49% 30.18 in 10.0 mi Calm Calm - N/A   Clear
10:53 AM 62.1 °F 41.0 °F 46% 30.17 in 10.0 mi Variable 3.5 mph - N/A   Clear
11:53 AM 64.9 °F 42.1 °F 43% 30.17 in 10.0 mi Variable 4.6 mph - N/A   Clear
12:53 PM 66.0 °F 43.0 °F 43% 30.15 in 10.0 mi Calm Calm - N/A   Clear
1:53 PM 70.0 °F 43.0 °F 38% 30.14 in 10.0 mi WNW 8.1 mph - N/A   Clear
2:53 PM 70.0 °F 43.0 °F 38% 30.14 in 10.0 mi Calm Calm - N/A   Clear
3:53 PM 70.0 °F 43.0 °F 38% 30.12 in 10.0 mi Calm Calm - N/A   Clear
4:53 PM 72.0 °F 43.0 °F 35% 30.12 in 10.0 mi Variable 3.5 mph - N/A   Clear
5:53 PM 72.0 °F 43.0 °F 35% 30.12 in 10.0 mi Calm Calm - N/A   Clear
6:53 PM 72.0 °F 43.0 °F 35% 30.12 in 10.0 mi Variable 5.8 mph - N/A   Clear
7:53 PM 69.1 °F 43.0 °F 39% 30.13 in 10.0 mi NNW 3.5 mph - N/A   Clear
8:53 PM 66.0 °F 45.0 °F 47% 30.14 in 10.0 mi North 3.5 mph - N/A   Clear
9:53 PM 64.9 °F 45.0 °F 48% 30.14 in 10.0 mi North 3.5 mph - N/A   Clear
10:53 PM 62.1 °F 46.0 °F 56% 30.14 in 10.0 mi North 4.6 mph - N/A   Clear
11:53 PM 61.0 °F 45.0 °F 56% 30.15 in 10.0 mi North 3.5 mph - N/A   Clear